STARLINK-6216, 56893

Orbit data source: Space-Track

STARLINK-6216, 56893 is a payload satellite owned by SpaceX/Seattle (US) in LEO that was launched on Mon, 12 Jun 2023 UTC via an FALCON 9 launch vehicle from the Air Force Eastern Test Range (AFETR). Payload-class satellites include a variety of spacecraft equipped with specific instruments for various scientific and technological missions. These include communications satellites like Starlink; space stations such as the ISS; scientific satellites like the Hubble; Earth observation satellites from companies like Planet Labs, Umbra, and HawkEye 360; GPS; miniature CubeSats for education and research; and military/defense satellites.

Loading next visibility...
Identifier
56893, 2023-083T
Orbit
LEO
Country
Flag of USUS
Related business
Manufacturer
SpaceX/Seattle
Mission
Operational Commercial Communications
Bus & Motor
STARLINK, Unknown motor
Mass
305 kg wet, ~290 kg dry
Launch date (UTC)
2023-06-12 (3 years ago)
Launch vehicle
FALCON 9
Launch site
Air Force Eastern Test Range (AFETR)
Object type
Payload
Rocket body
Debris
Shape & HBR
Box + 1 Pan, 10.1 m
Radar Cross Section
11.087 m², Large (>1 m²)

Expand to show TLE details & history
Last TLE update: 2 days ago

TLE from 2 days ago
0 STARLINK-6216
1 56893U 23083T   26171.41846227 -.00005458  00000-0 -18888-3 0  9998
2 56893  43.0023 224.8477 0000873 160.9338 199.1546 15.27593086167462
Epoch: 2026-06-20T10:02Z
TLE epoch observation values (Epoch: 2026-06-20T10:02:35.140Z)
Latitude
-0.00004°
Longitude
165.56788°
Altitude
483.351 km
Speed
7.625 km/s
True Right ascension
14h 59m 23s
True Declination
0° 00' 00"
Sunlit
Object was in full shadow at epoch
Visualization orbit readout
Latitude
Unknown
Longitude
Unknown
Altitude
Unknown
Speed
Unknown
Apparent Right ascension
Unknown
Apparent Declination
Unknown
Sunlit
N/A
Visualization observer readout
Local Sidereal Time
21:30:44
Azimuth
Unknown
Elevation
Unknown
Doppler factor
Unknown
Orbital elements
Apogee altitude
485.554 km
Perigee altitude
484.356 km
Semi-major axis
6,863.092 km
Eccentricity
0.00009
Inclination
43.0023°
RAAN
224.8477°
Arg. of periapsis
160.9338°
True anomaly
199.15132°
Mean anomaly
199.1546°
Eccentric anomaly
199.15296°
Mean motion
3.81736 °/min
Orbital period
94.31 mins
BSTAR
-0.00018888
Loading maneuver chart data...
Computing Atmospheric mass density...
Loading historical data...
Loading historical data...
Loading historical data...
Loading historical data...
Loading historical data...
Loading historical data...
Loading historical data...

Documentation

Showing up to 5 results
|